RH
12 11 10 10 10 10 10 10 10 10 10 10 10 10 10 10 10 11 11 12 13 14 15 17 19 21 24 28 32 37 40 43 44 44 43 43 43 44 46 49 54 58 62 66 68 71 73 77 79 80 81 81 81 81 80 80 80 80 80 79 79 79 79 78 78 79 79 80 81 82 82 82 82 82 81 81 81 81 81 81 81 81 81 81 81 81
11 10 10 10 10 10 10 10 10 10 10 10 10 10 10 10 10 10 10 10 10 10 11 11 12 13 14 16 18 22 26 30 34 38 40 42 42 41 40 40 41 42 45 48 52 55 59 63 66 69 71 72 73 73 72 72 72 72 71 71 70 70 69 69 69 69 71 73 75 77 78 78 78 78 78 78 77 77 76 76 75 75 75 74 74 74
11 10 10 10 10 10 10 10 10 10 10 10 10 10 10 10 10 10 10 10 10 10 10 10 10 10 10 11 11 12 14 16 19 23 27 31 35 38 40 41 41 41 41 42 43 44 46 48 51 53 55 57 58 59 60 60 61 61 61 61 60 60 60 59 59 60 61 63 65 67 69 70 70 70 70 69 69 68 68 67 66 65 65 64 63 63
11 11 11 11 11 11 11 10 10 10 10 10 10 10 10 10 10 10 10 10 10 10 10 10 11 11 11 11 11 10 10 11 11 12 14 17 20 24 28 33 36 40 42 43 43 44 44 44 45 45 46 46 47 48 49 50 51 52 52 53 53 53 52 53 53 54 55 56 58 59 60 60 60 60 60 60 60 59 59 58 58 57 56 55 54 53
11 11 11 11 11 11 11 10 10 10 9 9 9 9 9 9 9 9 9 9 9 9 10 10 10 10 10 11 11 11 11 11 11 10 10 11 11 13 15 17 21 25 30 34 38 41 43 45 46 46 47 46 46 47 47 48 49 50 51 51 51 51 51 52 52 53 54 55 55 56 56 56 56 56 56 56 56 56 56 55 55 55 54 53 52 51
12 12 12 12 12 11 11 10 10 9 9 9 9 9 8 8 8 8 8 8 8 8 8 9 9 9 9 10 10 10 10 11 11 11 11 11 11 11 11 11 11 12 14 17 20 24 28 33 36 40 43 45 47 49 50 51 52 53 54 55 56 56 57 57 57 58 58 58 59 59 59 59 59 59 59 59 59 60 60 60 59 59 58 57 56 55
12 12 12 12 12 11 10 10 10 9 9 9 8 8 8 8 8 8 8 8 8 7 7 7 8 8 8 8 8 9 9 9 10 10 10 11 11 11 12 12 11 11 11 11 11 11 13 14 16 19 22 25 28 32 34 37 39 41 43 45 47 49 51 53 55 57 58 59 60 61 62 63 64 64 65 65 65 65 65 65 65 64 63 62 61 60
13 13 13 12 12 11 10 10 9 9 9 9 8 8 8 8 8 7 7 7 7 7 7 7 7 7 7 7 7 7 8 8 8 9 9 9 10 10 11 12 12 13 13 13 12 12 11 11 10 10 10 11 12 13 14 15 17 18 20 21 24 26 29 32 35 38 42 45 48 50 53 55 58 60 61 62 63 63 64 64 64 63 63 62 61 60
14 13 13 12 12 11 10 10 9 9 9 9 8 8 8 8 7 7 7 7 7 7 7 7 7 7 6 6 6 7 7 7 7 7 8 8 8 9 10 10 11 12 13 13 13 14 14 14 13 13 12 12 11 11 10 10 10 9 9 9 10 10 11 12 14 16 18 21 24 27 30 34 37 41 43 46 48 49 50 51 51 52 51 51 50 49
14 14 13 12 11 11 10 10 9 9 9 9 8 8 8 8 7 7 7 7 6 6 6 6 6 6 6 6 6 6 6 6 6 6 7 7 7 8 8 9 10 11 12 12 13 14 14 14 14 14 14 14 13 13 13 12 12 11 11 10 10 9 9 8 8 8 8 8 9 10 12 14 16 18 21 24 26 28 30 32 33 34 35 35 34 34
14 13 13 12 11 11 10 10 9 9 9 8 8 8 7 7 7 7 7 6 6 6 6 6 6 6 6 6 6 6 6 6 6 6 6 6 6 7 7 8 9 10 10 11 12 13 14 15 15 15 15 15 15 15 14 14 14 13 13 13 12 12 11 11 10 10 9 9 8 8 8 7 8 8 9 10 11 12 14 15 16 18 19 19 20 20
14 13 13 12 11 10 10 10 9 9 9 8 8 8 7 7 7 7 6 6 6 6 6 6 6 6 6 6 6 6 6 6 6 6 6 6 6 6 7 8 8 9 10 10 11 12 13 14 15 16 16 16 16 16 16 15 15 15 14 14 14 13 13 13 12 12 12 11 11 10 10 9 9 8 8 7 7 7 7 8 8 9 9 10 10 11
14 13 12 11 11 10 10 10 9 9 9 8 8 8 8 7 7 6 6 6 6 6 6 6 6 6 6 6 6 6 6 6 6 6 6 6 6 7 7 8 9 9 9 10 10 11 12 13 14 15 16 16 16 17 17 16 16 16 16 15 15 15 14 14 13 13 13 12 12 12 11 11 10 10 10 9 9 9 8 8 8 8 7 7 7 8
13 12 12 11 11 10 10 10 10 9 9 9 9 8 8 7 7 7 6 6 5 5 5 5 5 5 5 5 6 6 6 6 7 6 6 6 6 7 7 8 9 9 9 10 10 11 11 12 13 14 15 15 16 16 17 17 17 16 16 16 16 15 15 15 14 14 14 13 13 12 12 12 11 11 11 10 10 10 10 10 9 9 9 9 8 8
13 12 12 11 11 10 10 10 10 10 10 9 9 9 8 8 7 7 6 6 6 5 5 5 5 5 5 5 5 6 6 6 7 7 6 6 6 7 8 9 9 9 9 10 10 11 11 12 12 13 14 14 15 16 16 16 16 16 16 16 16 16 15 15 15 14 14 14 13 13 13 12 12 12 11 11 11 10 10 10 10 10 10 9 9 9
13 12 12 11 11 11 10 10 10 10 10 10 10 9 9 8 7 7 6 6 6 5 5 5 5 5 5 5 5 5 6 6 6 7 6 6 7 7 8 9 9 9 9 10 10 11 11 12 12 13 14 14 15 15 16 16 16 16 16 16 16 16 15 15 15 14 14 14 13 13 13 12 12 12 11 11 11 11 10 10 10 10 10 10 10 9
13 12 12 12 11 11 11 11 11 11 11 10 10 10 9 9 8 7 7 6 6 6 5 5 5 5 5 5 5 5 6 6 6 7 7 7 7 7 8 9 10 10 10 10 11 11 12 12 13 13 14 14 15 15 15 16 16 16 16 16 16 15 15 15 15 14 14 14 13 13 13 12 12 12 11 11 11 11 10 10 10 10 10 10 10 9
13 13 12 12 12 12 12 12 11 11 11 11 11 10 10 9 9 8 7 7 6 6 6 6 5 5 5 5 5 5 6 6 7 7 7 7 8 8 9 10 10 11 11 11 12 12 12 12 13 13 14 14 14 15 15 15 15 15 15 15 15 15 15 14 14 14 13 13 13 12 12 12 12 11 11 11 11 11 10 10 10 10 10 10 10 9
13 13 13 13 12 12 12 12 12 12 12 12 12 11 11 10 9 9 8 7 7 6 6 6 6 5 5 5 5 6 6 7 7 7 8 8 9 9 10 11 11 11 12 12 12 12 12 12 13 13 13 13 13 14 14 14 14 14 14 14 14 14 14 13 13 13 13 12 12 12 12 11 11 11 11 11 10 10 10 10 10 10 10 10 10 10
14 14 13 13 13 13 13 13 13 13 13 13 13 12 11 11 10 9 8 7 7 6 6 6 6 5 5 5 5 6 6 7 7 8 8 9 10 10 11 12 12 12 12 12 12 12 12 12 12 12 12 12 12 12 12 12 12 13 13 13 13 12 12 12 12 12 12 12 12 11 11 11 11 11 11 10 10 10 10 10 10 10 10 10 10 10
14 14 14 14 14 14 14 14 14 14 14 14 13 13 12 11 10 10 9 8 7 6 6 6 6 5 5 5 6 6 7 8 8 9 9 10 10 11 12 12 12 12 12 12 11 11 11 11 10 10 10 10 10 10 10 11 11 11 11 11 11 11 11 11 11 11 11 11 11 11 11 11 11 11 11 11 11 11 11 11 11 11 11 11 11 11
15 15 15 15 15 15 15 15 15 15 15 15 14 14 13 12 11 10 9 8 7 7 6 6 6 6 6 6 6 7 8 8 9 10 10 11 11 12 12 12 12 12 11 11 10 10 10 9 9 9 9 9 9 9 9 9 10 10 10 10 10 11 11 11 11 11 11 11 11 12 12 12 12 12 12 12 12 12 12 12 12 12 13 13 13 12
16 16 16 16 16 16 16 16 16 16 16 16 15 14 13 13 12 11 10 9 8 7 7 7 6 6 6 7 7 8 8 9 10 10 11 12 12 12 12 12 12 11 10 10 9 9 8 8 8 8 8 8 8 8 8 9 9 9 10 10 10 10 11 11 11 11 12 12 12 12 12 13 13 13 13 14 14 14 14 14 15 15 15 15 15 15
17 17 17 17 17 17 17 17 17 17 17 17 16 15 14 13 12 12 10 10 9 8 7 7 7 7 7 7 8 8 9 10 10 11 12 12 12 12 12 11 11 10 9 9 8 8 7 7 7 7 7 7 7 8 8 8 9 9 10 10 10 11 11 11 12 12 12 13 13 13 14 14 14 15 15 15 16 16 17 17 17 17 18 18 18 18
18 18 18 18 18 18 18 18 18 18 18 17 17 16 15 14 14 13 12 10 10 9 8 7 7 7 7 7 8 9 10 10 11 12 12 13 12 12 11 11 10 9 8 7 7 7 6 6 6 7 7 7 7 8 8 9 9 10 10 10 11 11 12 12 12 13 13 14 14 14 15 15 16 17 17 18 18 18 19 19 20 20 20 20 20 20
19 19 19 19 19 19 19 19 19 19 18 18 18 17 16 16 15 14 12 11 10 9 8 8 8 8 8 8 9 9 10 11 12 13 13 13 12 12 11 10 9 8 7 6 6 6 6 6 6 7 7 7 8 8 9 9 10 10 10 11 11 12 12 13 14 14 15 15 16 16 17 17 18 18 19 20 20 21 21 22 22 22 23 22 22 22
20 20 20 20 19 19 19 19 19 19 19 19 18 18 17 17 16 15 13 12 11 10 10 10 9 9 9 9 10 10 11 12 13 13 13 13 12 11 10 9 8 7 6 6 5 6 6 6 7 7 7 8 8 9 9 10 10 11 11 12 12 13 13 14 15 15 16 17 17 18 18 19 20 21 21 22 23 23 24 24 24 25 25 24 24 23
21 21 20 20 20 20 20 20 20 20 19 19 19 19 18 18 17 16 14 13 12 11 11 10 10 10 10 11 11 11 12 13 14 14 13 12 11 10 9 8 7 6 5 5 5 5 6 6 7 7 8 8 9 9 10 10 11 11 12 12 13 14 14 15 16 17 17 18 19 19 20 21 22 23 24 24 25 25 26 26 26 26 26 26 26 25
22 21 21 21 21 21 21 20 20 20 20 20 20 19 19 18 18 17 16 14 13 12 12 11 11 11 11 11 12 12 13 13 14 13 13 12 11 10 8 7 6 5 5 5 5 5 6 6 7 8 8 9 9 10 10 11 11 12 13 13 14 15 16 16 17 18 19 19 20 21 22 23 24 25 26 26 27 27 28 28 28 28 28 28 27 27
22 22 21 21 21 21 21 21 21 21 21 21 21 20 20 19 19 18 17 15 14 13 13 12 12 12 12 12 13 13 14 14 14 13 13 11 10 9 7 6 6 5 5 5 5 6 6 7 7 8 8 9 9 10 10 11 12 12 13 14 15 16 17 18 18 19 20 21 22 22 23 24 26 26 27 28 29 30 30 30 30 30 30 30 30 30
23 22 22 22 22 22 22 21 21 21 21 21 21 21 21 21 20 19 18 17 15 14 13 13 13 13 13 14 15 15 15 15 14 13 12 11 9 8 7 6 5 5 5 5 6 6 7 7 7 8 8 9 9 10 10 11 12 13 14 15 16 17 18 18 20 20 21 22 23 24 24 26 27 28 29 30 31 32 32 33 33 33 33 33 33 33
24 23 23 23 22 22 22 22 22 22 22 22 22 22 22 22 21 20 19 18 17 15 14 13 13 13 13 14 15 16 16 15 14 13 12 10 9 7 6 5 5 5 5 5 6 6 7 7 7 7 8 8 9 10 10 11 12 13 14 15 16 17 18 19 20 21 22 23 24 25 25 26 28 29 30 32 33 34 35 35 35 35 35 35 35 35
24 24 23 23 23 22 22 22 22 22 23 23 23 23 23 23 22 22 21 19 18 16 15 14 14 14 14 15 16 16 16 15 15 13 12 10 8 7 6 5 5 5 5 5 5 6 7 7 7 7 8 8 9 9 10 10 12 13 14 16 17 18 19 20 21 22 23 24 25 26 26 27 28 30 31 33 34 35 36 37 38 38 38 38 37 37
25 24 24 23 23 22 22 22 23 23 24 24 24 24 24 24 24 23 22 21 19 18 16 15 15 15 15 16 17 17 17 16 15 13 12 10 8 6 5 5 5 5 5 5 6 6 6 7 8 8 9 9 9 10 10 11 12 13 14 16 17 18 19 20 22 23 24 25 26 27 28 28 29 30 31 33 34 35 37 38 38 39 39 39 39 38
25 24 24 23 23 22 22 23 23 24 24 25 25 26 26 26 25 25 23 22 21 19 18 17 16 16 16 17 18 18 18 17 15 13 11 9 7 6 5 5 5 5 5 5 6 6 7 7 8 9 10 11 11 11 11 11 12 13 14 16 17 18 19 21 22 24 25 26 27 28 29 30 30 31 32 33 34 35 36 37 38 38 38 38 38 38
25 24 24 23 23 23 23 24 24 25 26 26 26 27 27 27 26 26 25 24 22 20 19 18 17 17 17 18 18 19 18 17 15 14 11 9 7 6 5 5 5 5 5 6 6 6 7 8 9 10 11 13 13 14 13 14 15 16 17 17 18 19 20 22 24 26 27 29 30 30 31 32 32 33 34 34 35 35 36 37 37 37 38 38 37 37
25 25 24 24 24 24 25 25 26 26 27 28 28 28 28 28 28 27 26 25 23 22 20 19 18 18 18 18 19 19 18 17 16 14 11 9 7 6 5 5 5 5 5 5 6 6 7 8 9 10 12 13 15 17 17 18 19 20 20 20 21 22 23 24 26 28 30 32 33 34 34 35 35 36 36 37 37 37 38 38 38 38 38 38 37 37
26 25 25 25 26 26 26 27 28 28 29 29 29 29 29 29 29 29 28 26 25 23 21 20 19 19 18 18 19 19 19 18 16 13 11 9 7 6 5 5 5 5 5 5 6 6 7 9 10 11 12 14 16 18 20 22 24 25 25 25 26 27 28 29 30 32 34 35 37 38 39 39 40 40 41 41 41 41 41 41 41 40 40 39 39 38
27 27 27 27 28 28 29 29 30 30 30 30 30 30 30 30 30 30 29 28 26 24 23 21 20 19 19 19 20 20 19 18 16 13 10 8 7 6 5 5 5 6 6 6 6 6 7 8 10 11 13 14 16 18 21 24 26 28 30 31 32 34 34 35 36 38 39 41 42 43 44 44 45 45 46 46 46 46 45 45 44 43 42 42 41 40
29 29 29 30 30 31 31 32 32 32 32 32 32 32 32 32 32 31 30 29 27 26 24 22 21 20 20 20 20 21 20 19 16 13 10 8 6 6 5 5 6 6 6 6 6 7 7 8 9 10 12 14 17 20 23 26 28 30 32 35 38 40 41 42 43 44 45 46 47 48 49 49 49 50 50 50 50 50 49 48 47 46 45 44 43 42
32 32 32 33 33 34 34 34 34 34 34 34 34 34 34 34 34 33 32 30 29 27 25 23 22 21 21 21 21 21 21 19 16 13 10 8 6 6 5 6 6 6 7 7 7 7 7 8 9 10 11 14 17 20 24 27 30 32 34 38 41 44 47 50 51 52 52 52 53 53 54 54 54 54 54 54 54 53 52 51 50 49 47 46 45 44
35 35 35 36 36 37 37 37 37 37 37 36 36 36 36 36 35 35 34 32 30 27 26 24 22 22 22 23 23 22 22 19 17 13 10 7 6 5 5 6 6 7 7 7 8 8 8 9 9 10 11 13 16 20 24 27 30 33 35 38 42 46 51 55 57 58 59 59 59 58 58 58 58 58 58 57 57 56 54 53 52 51 50 48 46 45
38 38 39 39 40 40 40 40 40 40 39 39 39 38 38 38 37 36 35 33 31 28 26 24 22 22 22 24 24 24 22 20 17 13 10 7 6 6 6 6 6 7 7 8 8 8 9 9 10 10 11 13 16 19 23 27 30 33 36 39 43 48 55 59 61 62 64 65 64 63 62 62 62 61 61 60 60 59 57 56 54 53 51 50 48 47
42 42 43 43 43 43 43 43 42 42 42 41 41 41 40 40 39 38 36 34 32 29 26 24 23 22 23 24 25 25 24 20 17 13 10 7 6 6 6 6 7 7 8 8 8 8 8 9 10 11 12 13 16 18 22 26 29 33 36 39 44 49 55 59 62 65 68 69 68 67 65 65 65 64 64 63 62 61 60 58 57 55 53 51 50 49
45 46 46 46 46 46 46 46 45 44 44 43 43 43 42 42 41 39 38 35 32 29 26 24 23 22 24 25 26 27 25 21 17 13 10 7 6 6 6 7 7 8 8 8 8 8 8 9 10 11 12 14 16 19 22 25 29 33 37 41 45 50 54 57 61 66 69 71 71 70 68 66 65 65 65 64 64 63 62 61 60 58 56 54 53 51
49 49 50 50 50 50 49 48 48 47 46 46 45 44 44 43 42 41 39 36 33 30 26 24 23 23 25 26 28 28 26 22 18 13 10 7 6 6 6 7 8 8 8 8 8 9 9 9 10 11 12 14 16 19 22 26 29 33 37 41 46 51 55 59 62 66 69 71 71 71 69 67 66 65 64 64 64 64 64 63 62 61 59 57 55 53
52 53 53 53 53 52 51 51 50 49 48 48 47 46 45 44 43 42 40 36 33 29 26 24 23 23 26 28 29 29 27 22 18 13 9 7 6 6 7 7 8 9 9 9 9 9 9 9 10 11 12 14 17 20 22 26 30 34 38 43 47 52 57 61 63 66 68 70 71 70 69 68 67 66 64 64 64 64 65 64 64 63 61 60 58 55
55 56 56 55 55 54 54 53 52 51 50 50 49 48 47 46 44 43 40 37 33 29 25 23 22 24 27 29 30 30 27 22 17 13 9 7 6 6 7 8 8 9 9 9 9 9 9 10 10 11 12 14 17 19 22 25 29 34 39 44 50 56 61 64 66 68 70 70 70 69 68 68 67 66 65 65 65 66 66 65 65 64 63 61 59 58
58 58 58 57 57 56 56 55 54 53 52 51 51 50 49 47 45 43 40 37 33 28 24 22 23 25 28 31 32 31 28 23 17 12 9 7 6 6 7 8 9 9 9 9 9 9 9 10 10 11 12 14 15 17 18 22 26 32 38 44 51 57 63 67 68 69 70 70 69 68 67 66 65 65 64 65 66 67 67 67 66 65 64 62 61 60
59 59 59 59 58 58 57 57 56 55 54 53 53 51 50 48 46 43 40 36 32 27 23 22 23 26 30 32 33 32 28 22 17 12 8 6 6 6 7 8 9 10 10 10 10 10 10 10 10 11 12 13 13 14 15 17 21 26 32 39 46 54 61 66 68 68 69 68 67 67 66 65 65 64 64 65 66 66 67 67 67 66 65 64 63 62
61 60 60 60 60 59 59 58 58 57 56 55 54 53 52 50 47 44 40 35 31 26 22 21 23 26 31 33 34 32 28 22 17 11 8 6 6 6 7 9 9 10 10 10 10 10 11 11 11 11 12 12 13 13 14 15 17 20 25 31 38 47 56 62 64 64 65 66 66 66 66 65 64 64 64 64 64 64 65 66 67 68 68 67 66 65
Wind_Speed
32 32 32 33 33 33 33 33 34 34 34 34 34 35 35 35 35 35 35 34 34 34 33 33 32 32 31 30 29 28 26 25 24 23 22 21 21 20 20 20 20 21 22 23 24 26 28 29 30 31 32 32 33 33 33 34 34 35 35 36 36 37 37 38 38 39 39 40 40 39 39 39 39 39 40 41 41 42 43 43 44 44 45 46 48 49
32 32 32 33 33 33 33 33 34 34 34 34 34 34 35 35 35 35 35 35 35 34 34 34 33 33 32 32 31 30 28 27 26 25 24 23 23 22 22 23 23 23 24 25 26 27 28 30 31 32 33 34 35 35 36 36 36 37 37 37 38 38 39 39 40 40 40 41 41 41 41 42 42 42 42 43 43 44 45 46 46 47 47 48 49 50
32 32 32 33 33 33 33 33 34 34 34 34 34 34 35 35 35 35 36 36 35 35 35 35 34 34 33 33 32 32 31 30 29 28 27 26 25 25 24 24 25 25 26 27 28 29 30 32 33 34 35 37 37 38 39 39 40 40 41 41 42 42 42 43 43 43 43 43 43 44 44 45 45 46 46 47 47 48 49 49 50 50 50 51 51 52
32 32 32 33 33 33 33 33 34 34 34 34 34 34 35 35 35 36 36 36 36 36 36 36 36 35 35 34 34 33 33 32 31 30 30 29 28 27 27 27 27 27 27 28 29 30 32 33 34 36 37 38 39 40 41 42 43 43 44 44 45 45 45 46 46 46 47 47 47 47 47 48 48 49 49 50 51 51 52 52 52 53 53 53 53 54
32 32 33 33 33 33 33 34 34 34 34 34 34 34 35 35 35 36 36 36 36 37 37 37 37 37 36 36 36 35 35 34 34 33 32 32 31 30 30 29 29 29 29 29 30 30 32 33 34 35 37 38 39 41 42 43 43 44 45 45 46 46 47 47 48 48 49 49 49 50 50 50 51 51 52 52 53 53 53 54 54 54 54 54 54 55
32 33 33 33 33 33 34 34 34 34 34 34 34 35 35 35 35 36 36 36 37 37 37 37 37 37 38 37 37 37 37 36 36 36 35 35 34 33 33 32 32 32 31 31 31 32 32 33 34 35 36 37 38 39 40 41 42 43 44 44 45 45 46 46 47 48 49 49 50 51 51 51 52 52 52 53 53 53 53 54 54 54 54 54 54 54
33 33 33 34 34 34 34 34 34 34 34 34 35 35 35 35 36 36 36 37 37 37 37 37 37 38 38 38 38 38 38 39 38 38 38 38 37 37 36 36 35 35 34 34 34 34 34 34 35 35 36 36 37 38 39 39 40 41 42 42 43 43 44 44 45 46 47 48 49 49 50 51 51 51 51 52 52 52 52 52 52 52 53 53 53 53
33 33 34 34 34 34 34 34 34 34 34 35 35 35 35 36 36 36 37 37 37 37 37 38 38 38 38 38 38 39 39 39 40 40 40 41 41 40 40 39 39 38 37 37 36 36 36 36 36 37 37 37 38 38 39 39 40 40 41 41 41 42 42 43 43 44 44 45 46 47 48 48 49 49 50 50 50 51 51 51 51 51 51 51 52 52
33 34 34 34 34 34 34 34 34 34 35 35 35 35 35 36 36 37 37 37 38 38 38 38 38 38 38 38 38 39 39 40 40 41 41 42 42 43 43 43 42 42 41 40 40 39 39 39 39 39 39 39 39 40 40 40 40 41 41 41 41 41 42 42 42 43 43 43 44 45 46 46 47 48 48 49 49 50 50 50 50 51 51 51 51 51
34 34 34 34 34 34 34 34 34 35 35 35 35 35 36 36 37 37 37 38 38 38 38 38 38 38 38 38 39 39 39 40 40 41 42 42 43 44 44 45 45 45 45 44 44 43 42 42 41 41 41 41 41 41 42 42 42 42 42 42 42 42 42 42 43 43 43 43 43 44 44 45 46 46 47 48 48 49 50 50 51 51 51 51 51 52
34 34 34 34 34 34 34 34 35 35 35 35 35 36 36 37 37 38 38 38 38 38 38 38 39 39 39 39 39 40 40 40 41 41 42 42 43 44 45 45 46 46 47 47 47 47 46 45 44 43 43 43 43 43 43 43 43 44 44 44 44 44 44 44 43 44 43 44 44 44 44 45 45 46 46 47 48 48 49 50 51 51 52 52 52 52
34 34 34 34 34 34 34 35 35 35 35 35 36 36 37 37 38 38 39 39 39 39 39 39 39 39 39 40 40 40 41 41 42 42 43 43 43 44 45 45 46 47 48 48 49 49 48 48 47 46 45 45 44 44 44 44 44 45 45 45 45 45 45 45 45 45 45 45 45 45 45 45 45 46 46 47 47 48 49 49 50 51 52 52 52 53
34 34 34 34 34 34 35 35 35 35 36 36 36 37 37 38 39 39 39 40 40 40 40 40 40 40 40 40 41 41 42 42 42 43 43 44 44 44 45 45 46 47 48 48 49 49 49 49 49 48 47 47 46 45 45 45 45 45 45 45 46 46 46 46 46 46 46 46 46 46 46 46 46 46 47 47 47 48 49 49 50 50 51 52 52 53
34 34 34 34 34 35 35 35 36 36 36 37 37 38 38 39 39 40 40 40 40 40 40 40 41 41 41 41 42 42 42 43 43 44 44 44 44 45 45 45 46 47 47 48 48 49 49 49 49 49 48 48 47 47 46 46 45 45 45 45 46 46 46 46 47 47 47 47 47 47 47 47 47 47 47 47 48 48 49 49 50 50 51 51 52 52
34 34 34 35 35 35 36 36 36 36 37 37 38 38 39 39 40 40 41 41 41 41 41 41 41 41 41 42 42 43 43 44 44 44 45 45 45 45 45 45 46 46 47 47 47 48 48 48 48 48 48 48 48 47 47 46 46 46 45 45 45 45 45 46 46 46 47 47 47 47 47 47 48 48 48 48 48 49 49 49 49 50 50 51 51 52
34 34 35 35 35 36 36 36 37 37 38 38 39 39 40 40 41 41 41 42 42 42 42 42 42 42 42 43 43 43 44 44 44 45 45 45 45 45 45 45 45 46 46 46 46 47 47 47 47 47 47 47 47 47 47 47 47 46 46 45 45 45 45 45 45 46 46 46 47 47 47 47 48 48 48 48 49 49 49 49 50 50 50 51 51 51
34 34 35 35 36 36 37 37 37 38 38 39 39 40 40 41 41 42 42 42 42 43 43 43 43 43 43 44 44 44 44 44 45 45 45 46 45 45 45 45 45 45 46 46 46 46 46 46 46 47 47 47 47 47 47 47 47 47 47 46 46 46 45 45 45 45 46 46 46 46 47 47 47 48 48 48 49 49 49 49 50 50 50 50 51 51
34 35 35 36 36 37 37 38 38 38 39 39 40 41 41 42 42 42 43 43 43 43 43 44 44 44 44 44 44 44 45 45 45 45 46 46 45 45 45 45 45 45 45 45 46 46 46 46 46 46 47 47 47 48 48 48 48 48 47 47 47 47 46 46 46 46 46 46 46 46 46 46 47 47 47 48 48 48 49 49 49 49 50 50 50 51
34 35 35 36 37 37 38 38 39 39 40 40 41 41 42 42 43 43 43 44 44 44 44 44 44 44 45 45 45 45 45 45 45 45 46 45 45 45 45 45 45 45 45 46 46 46 47 47 47 47 48 48 48 48 49 49 49 48 48 48 48 47 47 47 46 46 46 46 46 46 46 46 46 46 46 46 47 47 47 48 48 48 49 49 49 50
35 35 36 37 37 38 39 39 40 40 40 41 41 42 42 43 43 44 44 44 44 45 45 45 45 45 45 45 45 45 45 45 46 46 46 45 45 45 45 45 46 46 46 47 47 47 48 48 48 49 49 49 49 49 49 49 49 49 49 49 48 48 48 47 47 46 46 46 45 45 45 45 45 45 45 45 45 45 46 46 46 47 47 47 48 48
35 36 37 38 38 39 39 40 40 41 41 42 42 43 43 44 44 44 45 45 45 45 45 45 45 45 45 45 46 46 46 46 46 46 46 46 45 45 45 46 47 47 47 48 48 49 49 49 50 50 50 50 50 50 50 50 49 49 49 48 48 48 47 47 46 46 45 45 45 44 44 44 43 43 43 43 43 44 44 44 44 45 45 45 46 46
36 37 37 38 39 40 40 41 41 42 42 42 43 43 44 44 45 45 45 45 46 46 46 46 46 46 46 46 46 46 46 46 46 46 46 46 46 46 46 47 48 48 49 49 50 50 50 50 50 50 50 50 50 50 49 49 49 48 48 47 47 47 46 46 46 45 45 44 44 43 43 42 42 42 42 42 42 42 42 42 42 42 42 43 43 43
37 37 38 39 40 40 41 41 42 42 43 43 43 44 44 45 45 46 46 46 46 46 46 46 47 47 47 47 47 47 46 46 47 47 47 47 47 47 47 48 49 50 50 50 51 51 51 51 50 50 50 50 49 49 48 48 47 47 46 46 45 45 45 45 44 44 43 43 42 42 41 41 41 40 40 40 40 40 40 40 40 40 40 40 40 41
37 38 39 40 40 41 41 42 42 43 43 43 44 44 45 45 46 46 46 47 47 47 47 47 47 47 47 47 47 47 47 47 47 47 48 48 48 48 48 49 50 51 51 51 51 51 51 50 50 49 49 49 48 48 47 46 46 45 45 44 44 44 43 43 43 42 42 42 41 41 40 40 40 39 39 39 38 38 38 38 38 38 38 38 38 38
38 39 39 40 41 41 42 42 43 43 43 44 44 45 45 46 46 47 47 47 47 47 47 48 47 47 48 48 47 47 47 48 48 48 49 49 49 49 50 50 51 52 52 52 51 51 50 50 49 48 48 47 47 46 45 45 44 44 43 43 42 42 42 42 41 41 41 40 40 40 39 39 39 38 38 37 37 37 37 36 36 36 36 36 36 37
38 39 40 40 41 42 42 42 43 43 43 44 44 45 46 46 47 47 47 48 48 48 48 48 48 48 48 48 48 48 48 48 48 49 49 50 51 51 51 51 51 52 52 52 51 50 49 48 48 47 47 46 45 45 44 43 43 42 42 42 41 41 41 40 40 40 39 39 39 39 38 38 38 37 37 37 36 36 36 36 36 36 36 36 36 36
39 40 40 41 41 42 42 43 43 43 44 44 44 45 46 47 47 48 48 48 48 48 48 48 48 49 49 48 48 48 48 49 49 50 50 51 52 52 52 52 52 52 52 51 50 49 48 47 47 46 45 45 44 43 43 42 42 41 41 41 40 40 40 39 39 39 39 38 38 38 38 37 37 37 37 36 36 36 36 36 35 35 35 36 36 36
39 40 41 41 42 42 43 43 44 44 44 44 45 45 46 47 47 48 48 49 49 49 49 49 49 49 49 49 49 49 49 49 50 51 51 52 52 53 52 52 52 51 51 50 49 48 47 46 45 45 44 44 43 42 42 41 41 41 40 40 40 40 39 39 39 38 38 38 38 38 37 37 37 37 36 36 36 36 36 36 36 36 36 36 36 36
40 40 41 42 42 43 44 44 44 45 45 45 45 46 46 47 48 48 49 49 49 50 50 50 49 49 49 50 50 50 50 50 50 51 52 53 53 53 53 52 51 51 50 49 48 47 46 45 44 44 43 43 42 42 41 41 41 40 40 40 40 39 39 39 38 38 38 38 38 38 38 37 37 37 37 36 36 36 36 36 36 36 36 36 36 36
40 41 41 42 43 44 44 45 45 45 45 46 46 47 47 48 48 49 49 50 50 50 50 50 50 50 50 50 50 50 50 50 51 51 52 53 53 53 53 52 51 50 49 48 47 46 45 44 43 43 43 42 42 41 41 41 41 40 40 40 40 40 39 39 39 39 38 38 38 38 38 38 38 37 37 37 37 37 37 37 37 36 36 36 37 37
40 41 42 43 43 44 45 45 45 46 46 46 47 47 48 48 49 50 50 50 51 51 51 51 51 51 51 50 51 51 51 51 51 52 52 53 53 53 52 52 51 49 48 47 46 46 45 44 43 42 42 42 42 42 41 41 41 41 40 40 40 40 40 39 39 39 39 39 39 39 38 38 38 38 38 38 38 37 37 37 37 37 37 37 37 37
41 41 42 43 44 45 45 45 46 46 46 47 47 48 48 49 50 50 51 51 51 52 52 52 52 51 51 51 51 51 51 52 52 52 52 53 53 53 52 51 50 49 47 46 45 44 44 44 43 42 42 42 42 42 42 41 41 41 41 41 41 41 40 40 40 40 40 39 39 39 39 39 39 39 38 38 38 38 38 38 38 38 38 38 38 38
41 42 43 43 44 45 45 46 46 46 47 47 48 48 49 50 50 51 51 52 52 52 52 52 52 52 52 52 52 52 52 52 52 52 52 53 53 52 51 50 49 48 47 46 45 44 44 43 43 43 43 42 42 42 42 42 42 42 42 41 41 41 41 41 41 41 41 40 40 40 40 40 39 39 39 39 39 39 39 39 39 39 39 38 38 38
41 42 43 44 44 45 45 46 46 47 47 48 48 49 50 50 51 51 52 52 53 53 53 53 53 52 52 52 52 53 53 52 52 52 53 52 52 52 51 49 48 47 46 45 44 44 43 43 43 43 43 43 43 43 43 43 43 43 42 42 42 42 42 42 42 42 41 41 41 41 41 40 40 40 40 40 40 40 40 40 40 40 40 40 40 39
41 42 43 44 44 45 46 46 47 47 48 48 49 49 50 51 51 52 53 53 54 54 54 53 53 53 53 53 53 53 53 53 53 53 53 52 52 51 50 49 47 46 45 44 44 43 43 43 43 43 43 43 44 44 44 44 44 44 44 44 44 44 43 43 43 43 43 42 42 42 42 42 41 41 41 41 41 41 41 41 41 41 41 41 41 41
42 42 43 44 44 45 46 46 47 48 48 49 49 50 51 51 52 53 53 54 54 54 54 54 54 53 53 53 53 53 53 53 53 53 53 52 51 50 49 48 47 45 45 44 43 43 43 43 43 42 43 43 44 44 45 45 45 45 45 45 45 45 45 44 44 44 44 44 43 43 43 43 42 42 42 42 42 42 42 42 42 42 42 42 42 42
42 42 43 44 45 45 46 47 47 48 49 49 50 50 51 52 52 53 54 54 55 55 55 55 55 54 54 53 53 53 53 54 54 53 53 52 51 50 48 47 46 45 44 44 43 43 43 43 43 43 43 43 43 44 44 45 45 45 45 46 46 46 46 46 46 45 45 45 45 44 44 44 43 43 43 42 42 42 42 43 43 43 43 43 43 42
42 43 43 44 45 46 46 47 48 48 49 50 50 51 52 52 53 54 54 55 55 55 56 56 55 55 54 54 54 53 53 54 54 54 53 52 51 49 48 47 46 45 44 43 43 43 43 43 43 43 43 43 43 43 44 44 44 45 46 46 46 47 47 47 47 47 46 46 46 46 45 45 45 44 44 43 43 43 43 43 43 43 43 43 43 43
42 43 44 44 45 46 47 48 48 49 50 50 51 51 52 53 53 54 55 55 56 56 56 56 56 55 55 54 54 54 54 54 54 54 53 52 51 49 48 46 45 45 44 44 43 43 43 43 43 43 43 43 43 43 44 44 44 45 46 46 47 47 47 48 48 48 47 47 47 47 47 46 46 45 45 44 44 44 43 43 43 43 43 43 43 42
42 43 44 45 46 46 47 48 49 49 50 51 51 52 52 53 54 54 55 56 56 56 57 57 56 56 55 54 54 54 54 54 54 54 53 52 51 49 48 46 45 45 44 44 44 44 44 44 44 44 44 43 44 44 44 44 45 45 46 46 46 47 48 48 48 48 48 48 48 48 48 47 47 46 46 45 45 44 44 44 44 44 43 43 43 42
43 44 44 45 46 47 48 49 49 50 51 51 52 52 53 53 54 55 55 56 56 57 57 57 57 56 56 55 54 54 53 54 54 53 53 52 50 49 47 46 45 44 44 44 44 44 44 44 44 44 44 44 44 44 44 45 45 46 46 46 47 47 48 48 49 49 49 49 49 49 49 48 47 47 46 46 46 45 45 45 44 44 44 43 43 43
43 44 45 46 47 47 48 49 50 51 51 52 52 53 53 54 54 55 56 56 57 57 57 57 57 56 56 55 54 54 53 53 53 53 52 51 50 49 47 46 45 44 44 44 44 44 44 44 44 44 44 44 44 44 44 45 46 46 47 47 47 48 48 49 49 50 50 50 50 50 49 49 48 47 47 47 46 46 46 45 45 44 44 44 43 43
44 45 46 47 48 48 49 50 51 51 52 52 53 53 53 54 54 55 56 56 57 57 58 57 57 56 55 55 54 54 53 53 53 53 52 51 50 48 47 46 45 44 44 44 44 45 44 44 44 44 44 44 44 44 44 45 46 47 47 47 48 48 48 49 50 50 50 50 50 50 50 49 48 48 47 47 47 46 46 45 45 45 44 44 43 43
45 46 47 48 49 49 50 51 51 52 52 53 53 54 54 54 55 55 56 56 57 58 58 58 57 56 55 54 54 54 54 53 53 52 51 50 49 48 46 45 45 44 44 44 44 44 44 44 44 44 44 43 44 44 44 45 46 47 47 48 48 48 49 49 50 50 50 50 50 50 50 49 48 48 47 47 46 46 46 45 45 44 44 44 43 43
46 47 48 49 50 50 51 51 52 52 53 53 54 54 54 55 55 55 56 57 58 58 58 58 57 56 55 54 54 54 54 54 53 52 51 50 48 47 45 45 44 44 44 44 44 44 44 44 44 44 43 43 43 44 44 45 46 46 47 48 48 49 49 49 50 50 50 50 50 50 50 49 48 47 47 46 46 45 45 45 44 44 44 43 43 42
48 49 49 50 50 51 51 52 53 53 54 54 54 54 55 55 55 56 56 57 58 58 58 58 57 56 55 54 54 54 54 54 54 53 51 49 48 46 45 44 43 43 43 44 44 44 44 44 43 43 43 43 43 43 44 45 45 46 47 47 48 48 49 49 50 50 50 50 50 49 49 48 47 47 46 45 45 45 44 44 44 43 43 43 43 42
49 50 50 51 51 52 52 53 53 54 54 55 55 55 55 55 55 56 57 57 58 58 58 58 57 55 54 54 54 54 54 54 54 53 52 50 47 45 44 43 42 42 43 43 43 43 43 43 43 43 43 43 43 43 44 44 45 46 46 47 47 48 48 49 49 50 50 49 49 48 48 47 47 46 45 45 44 44 43 43 43 43 43 42 42 42
50 51 51 52 52 53 53 54 54 55 55 55 55 55 55 55 56 56 57 58 58 59 58 58 56 55 54 54 53 53 54 54 54 53 52 50 48 45 43 42 42 41 42 42 42 42 42 43 43 43 43 43 43 43 44 44 45 45 46 46 46 47 47 48 48 48 48 48 48 47 46 46 45 45 44 43 43 42 42 42 42 42 42 42 42 41
51 51 52 52 53 53 54 54 55 55 55 56 56 56 56 55 56 56 57 58 59 59 58 57 56 55 54 53 53 54 54 54 54 53 52 50 48 46 44 42 41 41 41 41 41 41 42 42 42 42 42 43 43 44 44 44 44 45 45 45 45 45 45 46 46 46 46 46 45 45 44 44 44 43 43 42 41 41 41 41 41 41 41 41 41 41
51 51 52 53 53 54 54 55 55 55 56 56 56 56 56 56 56 57 58 59 59 59 58 57 55 54 53 53 53 53 54 54 54 53 52 50 48 46 44 42 41 41 41 40 40 41 41 41 41 42 42 43 43 44 44 44 44 44 44 44 44 44 44 44 44 44 43 43 43 42 42 42 42 41 41 40 40 39 39 39 39 40 40 40 40 40
51 52 52 53 53 54 55 55 56 56 56 56 56 56 56 56 57 58 58 59 59 59 58 56 55 54 53 53 53 53 54 54 54 53 51 50 47 45 43 42 41 41 40 40 40 40 40 41 41 41 42 43 43 43 44 44 44 44 43 43 43 43 42 42 42 42 41 41 41 40 40 40 40 39 39 38 38 37 37 37 37 38 38 39 39 38
Wind_Direction
312 313 314 315 317 318 319 321 322 323 323 324 325 325 326 327 328 328 329 330 330 330 331 331 331 331 332 332 332 331 330 328 325 321 317 313 309 304 301 297 294 292 289 287 285 284 282 281 280 279 278 277 276 275 274 273 273 272 272 271 271 270 270 269 268 267 266 265 264 262 261 260 259 258 257 255 254 254 253 253 253 253 251 250 250 250
312 313 314 315 316 318 319 320 321 321 322 323 323 324 325 326 326 327 327 328 328 328 328 328 329 329 329 330 330 330 329 328 326 324 320 316 312 306 301 297 293 289 286 284 282 280 279 278 278 277 277 276 276 276 275 275 275 275 275 275 275 274 273 272 271 270 269 267 266 265 264 264 263 262 262 261 260 259 259 259 258 258 258 257 256 255
312 312 314 315 316 317 318 319 320 320 321 321 322 323 323 324 325 325 325 326 326 326 326 326 326 326 327 327 327 327 327 326 325 324 322 319 315 311 307 302 297 292 288 285 282 280 278 277 276 276 276 275 275 276 276 276 276 276 276 276 275 275 274 273 273 272 271 270 268 267 266 266 266 265 265 265 265 264 264 264 264 263 263 262 262 261
311 312 313 314 315 316 317 318 319 319 320 320 321 322 322 323 323 323 323 323 324 324 324 324 324 324 324 324 324 324 324 323 322 321 320 318 316 313 310 306 302 298 293 289 286 283 280 278 277 275 275 275 275 275 275 276 276 276 276 275 275 274 274 273 273 272 271 270 269 269 268 267 267 267 267 266 266 267 267 267 267 266 266 266 265 264
310 311 312 313 314 315 316 317 318 319 319 320 320 321 321 322 322 322 322 322 322 322 322 322 322 322 322 322 322 322 321 321 320 319 318 316 314 312 310 307 304 301 297 294 291 287 284 282 279 278 277 276 276 276 276 276 276 276 276 275 275 274 274 273 272 272 271 270 270 269 269 268 268 268 268 268 268 268 268 268 268 267 267 267 266 266
310 311 312 313 314 315 316 317 318 318 319 319 320 320 321 321 321 321 321 321 320 320 320 320 320 320 320 320 320 319 319 318 317 317 315 314 313 311 309 307 305 302 300 297 294 292 289 287 285 283 281 280 279 278 278 277 277 277 277 276 275 275 274 273 272 272 271 270 270 270 269 269 269 269 269 269 268 268 268 268 268 268 267 267 266 266
310 311 312 313 314 315 316 317 317 318 318 319 319 320 320 320 320 320 320 320 320 320 319 319 319 319 318 318 318 317 316 316 315 314 314 312 311 310 309 307 305 303 301 299 296 294 292 290 289 287 285 284 282 281 280 279 279 278 277 277 276 275 274 273 272 271 271 270 270 270 270 270 270 270 269 269 269 269 269 269 268 268 267 267 266 266
310 311 312 313 314 315 316 316 317 317 318 318 319 319 319 320 320 320 320 320 320 319 319 319 318 318 318 317 316 316 315 314 313 312 311 311 310 309 307 306 305 303 301 299 297 295 293 291 290 288 287 285 284 283 282 281 280 279 278 278 277 276 275 274 273 272 271 270 270 269 269 269 269 269 269 269 269 269 269 269 268 268 267 267 266 266
310 311 312 313 314 315 315 316 316 317 317 317 318 318 319 319 319 320 320 320 320 319 319 318 318 318 317 317 316 315 314 313 312 311 310 309 307 307 306 305 304 303 301 300 298 295 294 292 290 288 287 286 285 284 283 282 281 280 280 279 278 277 276 275 274 273 272 271 270 269 269 269 269 269 269 269 269 269 269 269 268 268 268 267 267 266
310 311 312 313 313 314 315 315 315 316 316 316 317 318 318 319 319 319 319 320 319 319 319 318 318 318 317 317 316 315 314 313 311 310 309 308 306 305 304 303 302 301 300 299 298 296 295 293 291 290 288 287 286 285 284 283 283 282 281 280 280 279 278 277 276 275 274 273 272 271 270 269 269 268 268 268 268 268 268 268 268 268 268 268 267 267
310 310 311 312 313 313 314 314 314 314 315 315 316 317 318 318 319 319 319 319 319 319 318 318 318 318 317 317 316 315 314 313 312 310 309 308 306 305 303 302 301 300 299 298 297 296 296 295 293 292 290 289 287 286 285 284 284 283 282 282 281 281 280 279 278 277 277 276 274 273 272 271 270 269 269 268 268 268 268 268 268 268 268 268 267 267
309 310 311 311 312 312 313 313 313 314 314 315 316 317 318 318 319 319 319 319 319 319 319 318 318 318 318 317 316 315 314 313 312 310 309 308 307 305 303 302 300 299 298 297 296 296 295 295 294 293 292 291 289 288 286 285 284 283 283 282 282 281 281 280 279 279 278 277 276 275 274 273 272 271 271 270 269 268 268 268 267 267 267 267 267 267
309 310 310 311 311 312 312 312 313 313 314 315 316 317 318 318 319 319 319 319 319 319 319 318 318 318 318 318 317 316 315 313 312 311 310 308 307 305 304 302 300 299 297 296 296 295 295 294 294 293 293 292 291 289 288 286 285 284 283 282 281 281 280 280 279 279 278 278 277 276 276 275 274 273 272 271 270 269 269 268 268 267 267 267 267 266
309 309 310 310 311 311 312 312 313 313 314 315 316 317 317 318 318 318 319 319 319 319 319 319 318 319 318 318 317 316 315 314 313 311 310 309 308 306 304 302 300 299 297 296 296 295 294 294 293 293 292 292 291 290 289 288 286 285 284 282 281 281 280 279 279 278 278 278 277 277 276 275 275 274 273 272 271 271 270 269 268 268 267 267 267 266
308 309 309 310 311 311 312 312 312 313 314 315 315 316 317 317 318 318 319 319 319 319 319 319 319 319 319 318 318 317 315 314 313 312 310 309 308 307 305 303 301 299 298 297 296 295 294 294 293 293 292 292 291 290 290 289 288 286 285 284 282 281 280 279 279 278 278 277 277 276 276 275 275 274 273 273 272 271 271 270 269 269 268 268 267 267
308 309 309 310 311 311 311 312 313 313 314 315 315 316 317 317 318 318 319 319 319 319 319 319 319 319 319 319 318 317 316 314 313 312 311 310 309 308 306 303 301 300 299 297 296 295 295 294 293 293 292 292 291 290 290 289 288 287 286 285 284 283 282 280 279 278 278 277 276 276 275 275 274 274 273 273 272 272 271 271 270 270 269 269 268 267
308 308 309 310 310 311 311 312 313 313 314 314 315 316 317 317 318 318 319 319 319 319 319 319 319 319 319 318 318 317 316 315 313 312 311 310 309 308 306 303 302 300 299 298 297 296 295 294 294 293 292 292 291 290 290 289 288 288 287 286 285 284 283 282 280 279 278 277 276 276 275 275 274 274 273 273 273 272 272 271 271 271 270 270 269 269
307 308 309 310 310 311 311 312 312 313 314 314 315 316 316 317 318 318 319 319 320 320 320 319 319 319 319 318 318 317 316 315 313 312 311 310 309 308 306 304 302 301 300 299 298 296 296 295 294 293 292 292 291 290 289 289 288 288 287 286 286 285 284 283 282 281 280 279 278 277 276 275 275 274 274 273 273 273 272 272 272 271 271 271 270 270
307 308 309 310 310 311 312 312 313 313 314 314 315 316 317 317 318 319 319 320 320 320 320 320 319 319 319 318 318 317 316 315 313 312 311 310 309 308 306 304 302 301 300 299 298 297 296 295 294 293 292 291 291 290 289 288 288 287 287 286 286 285 284 284 283 282 281 280 279 278 278 277 276 275 275 274 274 273 273 273 272 272 272 271 271 271
307 308 309 310 311 311 312 312 313 313 314 314 315 316 317 318 318 319 319 320 320 320 320 320 319 319 319 318 318 317 316 315 313 312 311 310 308 307 305 304 302 301 300 299 298 297 296 295 294 293 292 291 291 290 289 288 288 287 287 286 286 285 285 284 283 283 282 281 281 280 279 278 278 277 276 275 275 274 274 273 273 273 272 272 272 271
307 308 309 310 311 312 313 313 313 314 314 315 315 316 317 318 319 319 320 320 320 320 320 320 319 319 319 318 318 317 316 314 313 312 311 309 308 307 305 304 302 301 300 299 298 297 297 296 295 294 293 292 291 290 289 288 287 287 286 286 286 285 285 284 284 283 283 282 282 281 280 279 279 278 277 276 276 275 275 274 274 273 273 273 272 272
308 309 310 311 311 312 313 313 314 314 315 315 316 317 318 318 319 320 320 320 321 321 320 320 320 319 319 319 318 317 316 314 313 312 311 309 308 307 306 304 303 302 301 300 299 298 297 296 295 294 293 292 291 290 289 288 288 287 286 286 285 285 285 284 284 283 283 283 282 281 281 280 279 279 278 277 277 276 276 275 275 274 274 274 273 273
308 309 310 311 312 312 313 314 314 315 315 316 317 317 318 319 320 320 321 321 321 321 321 320 320 320 320 319 318 317 315 314 313 312 310 309 308 307 306 305 304 302 301 301 300 299 298 296 295 294 293 292 291 290 289 288 287 287 286 286 285 285 284 284 284 283 283 282 282 281 281 280 280 279 279 278 278 277 277 276 275 275 274 274 273 273
308 309 310 311 312 313 313 314 315 315 316 316 317 318 319 319 320 321 321 322 321 321 321 321 320 320 319 319 318 316 315 314 313 312 311 309 308 308 307 306 304 303 302 301 300 299 298 297 295 294 293 292 291 290 289 288 288 287 286 285 285 284 284 284 283 283 282 282 282 281 281 280 280 280 279 279 278 278 277 276 276 275 274 274 273 273
308 309 310 311 312 313 314 314 315 315 316 317 317 318 319 320 320 321 321 322 322 321 321 320 320 319 319 319 318 317 316 314 313 312 311 310 309 308 308 307 305 304 303 302 301 300 298 297 296 294 293 292 291 290 289 288 287 287 286 285 284 284 283 283 283 282 282 282 281 281 280 280 280 279 279 279 278 277 277 276 275 274 273 273 272 272
308 309 310 311 312 313 313 314 315 315 316 317 317 318 319 320 320 321 321 321 321 321 321 320 320 319 319 318 318 317 316 315 313 312 311 311 310 309 308 307 306 305 304 303 301 300 299 297 296 295 293 292 291 290 289 288 287 286 285 285 284 283 283 282 282 282 281 281 281 280 280 279 279 279 278 278 277 277 276 275 274 273 273 272 272 272
308 309 310 311 312 313 313 314 315 315 315 316 317 318 319 319 320 320 321 321 321 321 321 321 320 320 319 318 317 317 316 315 314 313 312 311 310 310 309 308 307 305 304 303 302 300 299 297 296 294 293 292 291 290 289 288 287 286 285 284 283 283 282 282 281 281 280 280 280 279 279 279 278 278 277 277 276 275 275 274 273 272 272 272 272 273
308 309 310 311 312 313 313 314 314 315 315 316 316 317 318 319 320 320 321 321 321 321 321 321 320 320 319 318 317 317 316 315 314 314 313 312 311 310 310 309 307 306 305 303 302 300 299 297 296 294 293 292 291 290 289 288 287 286 285 284 283 282 282 281 281 280 279 279 278 278 278 277 277 277 276 276 275 274 274 273 272 272 272 272 272 273
308 309 310 311 312 313 314 314 314 315 315 315 316 317 318 319 319 320 320 321 321 321 321 321 320 320 319 318 317 317 317 316 315 314 313 312 312 311 310 309 308 307 305 303 302 300 298 297 295 294 293 292 291 289 288 287 286 285 284 283 283 282 281 280 280 279 278 278 277 277 276 276 275 275 275 274 274 273 272 272 272 271 272 272 273 273
308 309 310 311 312 313 314 314 314 315 315 315 316 317 318 318 319 320 320 321 321 321 321 321 320 320 319 318 318 317 317 316 316 315 314 313 312 311 311 310 308 307 305 303 302 300 298 297 295 294 293 292 290 289 288 287 286 285 284 283 282 281 280 279 279 278 277 276 276 275 275 274 274 274 273 273 273 272 272 271 271 271 271 272 273 273
309 310 311 312 313 313 314 314 315 315 315 316 316 317 318 318 319 320 321 321 321 321 321 321 320 320 319 318 317 317 317 317 316 316 314 313 312 312 311 310 309 307 305 303 301 300 298 297 295 294 293 292 290 289 288 287 286 285 284 282 281 280 279 278 277 276 276 275 274 274 273 273 273 272 272 272 272 272 271 271 271 271 271 272 272 273
309 310 311 312 313 314 314 315 315 315 316 316 317 317 318 319 319 320 321 321 321 321 321 321 320 320 319 318 317 317 317 317 317 316 315 314 313 312 311 310 309 307 306 304 301 299 298 297 296 294 293 292 291 290 289 287 286 285 283 282 281 280 279 278 277 276 275 274 273 273 272 272 271 271 271 271 271 271 271 271 271 271 271 272 272 273
310 311 312 313 313 314 315 315 315 316 316 317 317 318 318 319 320 320 321 321 322 322 321 321 320 320 319 318 318 317 317 317 317 316 316 315 314 313 312 310 309 307 306 304 302 300 298 297 296 295 294 293 292 291 290 288 287 285 283 282 281 279 279 278 276 275 274 273 273 272 271 271 271 270 270 270 270 270 270 270 271 271 271 271 272 272
310 311 312 313 314 314 315 316 316 316 317 317 318 318 319 319 320 321 321 322 322 322 322 321 320 320 319 318 318 317 317 317 317 317 316 315 314 313 312 310 309 307 305 303 302 300 298 297 296 295 294 293 292 291 290 289 287 286 284 282 281 280 279 278 276 275 274 273 273 272 271 270 270 269 269 269 269 269 269 269 269 270 270 270 271 271
311 312 313 314 314 315 316 316 317 317 317 318 318 318 319 320 320 321 321 322 322 322 322 321 321 320 319 318 318 317 317 317 317 317 317 316 315 313 312 310 309 307 305 303 302 300 298 297 295 294 293 293 292 292 291 290 288 287 285 284 282 281 280 279 277 276 275 274 273 272 272 271 270 269 269 268 268 268 268 268 268 268 269 269 270 270
311 312 313 314 315 316 316 317 317 318 318 318 319 319 320 320 321 321 322 322 322 322 322 321 321 320 319 318 318 317 317 317 317 317 317 316 315 314 312 310 309 307 305 303 302 300 298 297 295 294 293 291 291 291 291 290 289 287 286 285 284 282 281 280 279 278 277 276 275 274 273 272 271 270 270 269 269 268 268 268 268 268 268 268 269 269
312 313 314 315 316 316 317 317 318 318 319 319 319 320 320 320 321 321 322 322 322 322 322 322 321 320 319 318 318 317 317 317 318 318 317 317 316 314 312 311 309 307 305 303 302 300 299 297 296 294 293 291 289 289 289 289 288 286 285 285 284 283 282 281 280 279 278 277 276 275 275 274 273 272 271 271 270 270 269 269 269 268 268 269 269 269
313 314 315 316 316 317 318 318 318 319 319 319 320 320 320 321 321 322 322 322 323 323 322 322 321 320 319 319 318 318 318 318 318 318 318 317 316 315 313 311 309 307 305 304 302 301 299 298 296 294 293 291 290 288 287 286 286 285 284 283 282 281 281 280 280 279 278 278 277 276 276 275 275 274 273 273 272 271 271 270 270 270 269 269 269 270
313 314 315 316 317 317 318 319 319 319 320 320 320 320 321 321 321 322 322 323 323 323 323 322 321 320 319 319 318 318 318 318 319 319 318 318 316 315 313 311 309 308 306 305 303 302 300 299 297 295 293 291 290 288 287 285 284 283 283 282 281 280 279 279 278 278 278 277 277 276 276 276 275 275 274 274 274 273 273 272 272 271 271 271 271 271
314 315 316 317 317 318 318 319 319 320 320 320 320 321 321 321 322 322 322 323 323 323 323 322 321 320 319 318 318 318 318 319 319 319 319 318 316 315 313 311 309 308 307 305 304 303 302 300 299 297 295 292 290 288 286 284 283 282 282 280 280 279 278 278 277 277 277 276 276 276 276 276 275 275 275 275 274 274 274 274 273 273 273 272 272 272
314 315 316 317 318 318 319 319 320 320 320 320 321 321 321 321 322 322 323 323 323 323 323 322 321 320 319 318 318 318 319 319 319 319 319 318 316 315 313 311 310 308 307 306 305 305 303 302 300 298 297 294 292 289 286 284 283 282 281 279 278 278 277 277 276 276 276 275 275 275 275 275 275 275 275 275 275 275 275 275 275 275 274 274 274 274
315 316 316 317 318 318 319 320 320 320 320 320 321 321 321 321 322 322 322 323 323 323 323 322 321 320 319 318 318 318 319 319 320 320 319 318 316 315 313 311 310 309 308 307 306 306 305 304 302 300 298 296 293 290 287 285 284 282 281 279 278 277 277 276 275 275 275 275 275 275 275 275 275 275 276 276 276 276 275 275 275 275 275 275 275 275
315 316 317 317 318 318 319 320 320 320 320 320 320 321 321 321 322 322 322 323 323 323 323 322 321 320 319 318 318 318 319 319 320 320 319 318 316 315 313 311 310 309 309 308 307 307 306 305 303 302 300 298 295 292 289 286 285 283 281 280 278 277 276 275 275 275 274 275 275 275 275 275 275 275 276 276 276 276 276 276 276 276 276 276 276 275
316 316 317 317 318 318 319 319 320 320 320 320 320 320 321 321 321 322 322 323 323 323 323 322 321 320 319 318 318 318 319 319 320 320 319 318 316 314 313 311 310 309 309 309 308 308 307 306 304 303 302 300 297 294 291 288 286 284 282 281 279 277 276 275 275 275 274 274 274 274 274 275 275 275 275 276 276 276 276 276 276 276 276 276 276 276
316 316 317 317 318 318 319 319 319 320 320 320 320 320 320 321 321 322 322 323 323 323 323 322 321 320 319 319 319 319 319 319 320 320 319 318 316 314 312 311 310 310 309 309 309 308 308 306 305 304 303 301 298 295 292 290 287 285 283 281 279 278 276 275 274 274 274 274 274 274 274 274 274 275 275 275 276 276 276 276 276 276 276 276 276 276
316 316 316 317 317 318 318 319 319 319 320 320 320 320 320 321 321 322 322 323 323 323 323 322 321 320 319 319 319 319 319 320 320 320 319 318 316 314 312 311 310 309 309 310 310 309 309 308 307 306 304 302 300 297 295 292 289 286 284 282 280 278 277 275 274 274 273 273 273 273 273 274 274 274 274 274 275 275 275 275 275 276 276 276 276 276
315 316 316 317 317 318 318 319 319 319 319 320 320 320 320 321 321 322 323 323 323 323 323 322 321 320 319 319 319 319 320 320 320 320 319 318 316 314 312 310 309 309 309 310 310 310 310 309 308 307 305 303 301 299 296 294 291 288 285 283 281 279 277 275 274 274 273 273 273 273 273 273 273 273 273 273 273 274 274 274 275 275 275 275 275 275
315 316 316 317 317 318 318 318 319 319 319 320 320 320 320 321 322 322 323 323 323 323 323 322 321 320 319 319 319 319 320 320 320 320 319 318 316 314 312 310 309 309 309 310 310 311 311 310 310 308 307 304 302 300 298 296 293 290 288 285 282 279 277 276 275 274 273 273 273 272 272 272 272 272 272 272 272 272 273 273 274 274 274 274 274 275
315 316 316 317 317 318 318 318 319 319 319 320 320 320 321 321 322 322 323 323 323 323 323 322 321 320 319 319 319 320 320 320 320 320 319 318 316 314 312 310 309 309 309 309 310 311 311 311 311 310 309 306 304 302 300 298 295 293 290 287 284 281 278 276 275 274 274 273 273 273 273 272 272 271 271 271 271 271 271 272 272 273 273 273 273 274
315 316 317 317 317 318 318 318 319 319 319 319 320 320 321 321 322 322 323 323 323 323 322 322 321 320 319 319 319 320 320 320 320 320 319 317 316 314 311 310 309 309 309 310 311 312 312 312 312 311 310 308 307 305 303 301 299 296 293 289 286 283 280 277 276 275 274 274 274 274 273 273 272 271 271 270 270 270 270 271 271 272 272 272 272 273
316 316 317 317 317 318 318 318 319 319 319 319 320 320 321 321 322 322 323 323 323 323 322 322 321 320 319 319 319 320 320 321 321 320 319 317 315 313 311 310 309 309 309 310 311 312 313 314 313 313 311 310 309 308 306 304 301 298 295 292 288 285 282 279 276 275 274 273 273 273 273 273 272 272 271 270 269 269 269 269 269 270 270 271 271 272